Regional Weather Roundup
Issued by NWS

Home | Current Version | Previous Version | Text Only | Print | Product List | Glossary On
Versions: 1 2 3 4 5 6 7 8 9 10 11 12 13 14 15 16 17 18 19 20 21 22 23 24 25 26 27 28 29 30 31 32 33 34 35 36 37 38 39 40 41 42 43 44 45 46 47 48 49 50
000
ASUS43 KTOP 242259
RWRKS

WEATHER ROUNDUP FOR KANSAS
NATIONAL WEATHER SERVICE GOODLAND KS
500 PM CST FRI FEB 24 2017

NOTE:  "FAIR" INDICATES FEW OR NO CLOUDS BELOW 12,000 FEET WITH NO
SIGNIFICANT WEATHER AND/OR OBSTRUCTIONS TO VISIBILITY.

KSZ001>006-013>018-027>032-041>047-250000-
NORTHWEST KANSAS

CITY           SKY/WX    TMP DP  RH WIND       PRES   REMARKS
GOODLAND       CLOUDY    29  19  66 N14       30.01R WCI  18
HAYS           SUNNY     32  16  51 N24G32    30.03R WCI  19
HILL CITY      CLOUDY    31  14  49 N20G29    30.05R WCI  19
RUSSELL        MOSUNNY   30  17  58 N21G32    30.02R WCI  17
$$

KSZ061>065-074>080-084>089-250000-
SOUTHWEST KANSAS

CITY           SKY/WX    TMP DP  RH WIND       PRES   REMARKS
DODGE CITY     CLOUDY    36  19  50 N17G25    30.01R WCI  26
ELKHART          N/A     37  11  34 N13         N/A  WCI  29
GARDEN CITY    PTSUNNY   35  15  44 N18G25    30.01R WCI  24
GREAT BEND     MOSUNNY   36  17  46 NW20      30.01R WCI  25
LIBERAL        PTSUNNY   39  16  38 N14G21    30.02R WCI  31
$$

KSZ066>073-081>083-090>101-250000-
SOUTHEAST KANSAS

CITY           SKY/WX    TMP DP  RH WIND       PRES   REMARKS
CHANUTE        CLOUDY    35  21  56 NW23G31   29.93R WCI  23
COFFEYVILLE    CLOUDY    39  22  50 NW22G33   29.95R WCI  29
HUTCHINSON     CLOUDY    35  21  56 NW16      29.99R WCI  25
MEDICINE LODGE   N/A     36  19  50 N18G33    30.01R WCI  26
NEWTON         CLOUDY    31  22  69 NW23G30   29.98R WCI  18
PARSONS        CLOUDY    38  21  50 NW21G28   29.94R WCI  28
WICHITA INTL   PTSUNNY   34  20  56 NW24G32   29.99R WCI  21
WICHITA JABRA    N/A     32  20  61 NW18G30   29.99R WCI  20
WINFIELD       MOSUNNY   38  20  48 NW21G35   29.99R WCI  28
$$

KSZ007>012-019>026-033>040-048>060-102>105-250000-
NORTHEAST KANSAS

CITY           SKY/WX    TMP DP  RH WIND       PRES   REMARKS
CONCORDIA      PTSUNNY   26  18  71 N20G32    30.01R WCI  12
EMPORIA        CLOUDY    30  20  66 NW22G32   29.95R WCI  17
LAWRENCE       CLOUDY    31  25  78 NW21G26   29.91R WCI  18
MANHATTAN      CLOUDY    29  21  72 N10G22    29.99R WCI  20
OLATHE IND     CLOUDY    31  24  75 NW17G28   29.88R WCI  19
OLATHE EXE     CLOUDY    30  24  78 NW18G29   29.86R WCI  18
SALINA         CLOUDY    33  19  56 NW21G32   30.01R WCI  21
TOPEKA BILLARD CLOUDY    30  24  78 NW16      29.93R WCI  19
TOPEKA FORBES  CLOUDY    31  21  66 NW21G32   29.92R WCI  18
$$



USA.gov is the U.S. government's official web portal to all federal, state and local government web resources and services.